TimeMDT,TemperatureF,Dew PointF,Humidity,Sea Level PressureIn,VisibilityMPH,Wind Direction,Wind SpeedMPH,Gust SpeedMPH,PrecipitationIn,Events,Conditions,WindDirDegrees,DateUTC
12:52 AM,27.0,15.1,61,30.25,10.0,West,9.2,-,N/A,,Clear,270,2012-10-07 06:52:00
1:52 AM,27.0,14.0,58,30.23,10.0,West,4.6,-,N/A,,Clear,260,2012-10-07 07:52:00
2:52 AM,27.0,15.1,61,30.20,10.0,Calm,Calm,-,N/A,,Clear,0,2012-10-07 08:52:00
3:52 AM,25.0,14.0,63,30.19,10.0,Calm,Calm,-,N/A,,Clear,0,2012-10-07 09:52:00
4:52 AM,23.0,12.9,65,30.18,10.0,Calm,Calm,-,N/A,,Clear,0,2012-10-07 10:52:00
5:52 AM,19.9,12.0,71,30.17,10.0,Calm,Calm,-,N/A,,Clear,0,2012-10-07 11:52:00
6:52 AM,23.0,12.9,65,30.17,10.0,Calm,Calm,-,N/A,,Clear,0,2012-10-07 12:52:00
7:52 AM,34.0,19.0,54,30.15,10.0,WNW,4.6,-,N/A,,Clear,290,2012-10-07 13:52:00
8:52 AM,45.0,21.0,39,30.13,10.0,West,6.9,-,N/A,,Clear,260,2012-10-07 14:52:00
9:52 AM,50.0,24.1,36,30.11,10.0,West,8.1,-,N/A,,Clear,270,2012-10-07 15:52:00
10:52 AM,55.9,27.0,33,30.06,10.0,NNW,17.3,24.2,N/A,,Clear,340,2012-10-07 16:52:00
11:52 AM,55.9,28.0,34,30.05,10.0,NNW,16.1,24.2,N/A,,Scattered Clouds,340,2012-10-07 17:52:00
12:52 PM,57.0,27.0,32,30.03,10.0,NW,15.0,23.0,N/A,,Clear,310,2012-10-07 18:52:00
1:52 PM,59.0,24.1,26,30.00,10.0,NW,10.4,-,N/A,,Partly Cloudy,320,2012-10-07 19:52:00
2:52 PM,60.1,24.1,25,29.97,10.0,WNW,9.2,-,N/A,,Partly Cloudy,300,2012-10-07 20:52:00
3:52 PM,60.1,23.0,24,29.96,10.0,NNW,6.9,19.6,N/A,,Clear,330,2012-10-07 21:52:00
4:52 PM,60.1,24.1,25,29.95,10.0,NW,8.1,-,N/A,,Clear,310,2012-10-07 22:52:00
5:52 PM,57.9,24.1,27,29.96,10.0,NW,5.8,-,N/A,,Clear,320,2012-10-07 23:52:00
6:52 PM,45.0,21.9,40,29.98,10.0,NW,4.6,-,N/A,,Clear,320,2012-10-08 00:52:00
7:52 PM,44.1,23.0,43,29.95,10.0,Calm,Calm,-,N/A,,Clear,0,2012-10-08 01:52:00
8:52 PM,39.0,21.9,50,29.94,10.0,WNW,3.5,-,N/A,,Clear,290,2012-10-08 02:52:00
9:52 PM,45.0,26.1,48,29.91,10.0,WNW,4.6,-,N/A,,Clear,290,2012-10-08 03:52:00
10:52 PM,43.0,26.1,51,29.89,10.0,WNW,3.5,-,N/A,,Clear,300,2012-10-08 04:52:00
11:52 PM,43.0,25.0,49,29.87,10.0,Calm,Calm,-,N/A,,Clear,0,2012-10-08 05:52:00